Regional Weather Roundup
Issued by NWS

Home | Current Version | Previous Version | Text Only | Print | Product List | Glossary On
Versions: 1 2 3 4 5 6 7 8 9 10 11 12 13 14 15 16 17 18 19 20 21 22 23 24 25 26 27 28 29 30 31 32 33 34 35 36 37 38 39 40 41 42 43 44 45 46 47 48 49 50
000
ASUS43 KOAX 140910
RWRNE

WEATHER ROUNDUP FOR NEBRASKA
NATIONAL WEATHER SERVICE OMAHA NE
300 AM CST SUN FEB 14 2016

NOTES: SATELLITE DATA IS BEING USED TO AUGMENT CLOUD COVER ABOVE
       12000 FEET.
       "FAIR" INDICATES FEW OR NO CLOUDS BELOW 12,000 FEET WITH NO
       SIGNIFICANT WEATHER AND/OR OBSTRUCTIONS TO VISIBILITY.

  * THESE STATIONS DO NOT REPORT WEATHER SUCH AS RAIN...SNOW OR FOG.

NEZ001>004-019>022-054>056-141000-
NEBRASKA PANHANDLE

CITY           SKY/WX    TMP DP  RH WIND       PRES   REMARKS
SCOTTSBLUFF    CLEAR     30  24  78 W8        30.01F WCI  22
ALLIANCE       CLEAR     32  24  72 W15       29.97F WCI  22
CHADRON        CLEAR     30  24  78 SW7       29.98S WCI  23
KIMBALL        CLEAR     32  25  74 NW14      30.00F WCI  22
SIDNEY         CLEAR     32  25  75 NW13      30.00F WCI  22
$$

NEZ057>060-069>072-079>082-141000-
SOUTHWEST NEBRASKA

CITY           SKY/WX    TMP DP  RH WIND       PRES   REMARKS
NORTH PLATTE   CLEAR     33  28  81 W15       29.93F WCI  23
IMPERIAL       CLEAR     34  27  75 NW14      29.99F WCI  25
LEXINGTON      CLEAR     26  23  85 W5        29.93F WCI  21
MCCOOK         CLEAR     32  27  81 W12       29.97F WCI  23
OGALLALA       CLEAR     35  28  74 W15       29.98F WCI  25
$$

NEZ005>010-023>029-035>040-094-141000-
NORTH CENTRAL NEBRASKA

CITY           SKY/WX    TMP DP  RH WIND       PRES   REMARKS
VALENTINE      CLOUDY    38  32  79 W16       29.86R WCI  29
AINSWORTH      CLOUDY    37  33  85 W17G23    29.83S WCI  28
BROKEN BOW     PTCLDY    32  30  92 W10       29.89S WCI  24
O`NEILL        LGT SNOW  28  26  94 SW3       29.81F
ORD            CLOUDY    32  28  85 SW12      29.85F WCI  23
THEDFORD       PTCLDY    36  32  85 W16G22    29.90S WCI  26
$$

NEZ041-046>049-061>064-073>077-083>087-141000-
SOUTH CENTRAL NEBRASKA

CITY           SKY/WX    TMP DP  RH WIND       PRES   REMARKS
GRAND ISLAND   CLOUDY    20  11  68 SW22      29.94F WCI   3
AURORA         MOCLDY    20  11  68 S21       29.94F WCI   4
HASTINGS       CLOUDY    19   9  65 S10       29.95F WCI   7
HEBRON         CLOUDY    20  11  68 S6        30.04F WCI  12
HOLDREGE       CLEAR     22  14  72 SW6       29.95F WCI  15
KEARNEY *      CLEAR     21  12  68 SW10      29.94F WCI  10
YORK           CLOUDY    19  10  68 S17       29.97F WCI   4
$$

NEZ011>018-030>034-042>045-141000-
NORTHEAST NEBRASKA

CITY           SKY/WX    TMP DP  RH WIND       PRES   REMARKS
NORFOLK        FLURRIES  18   9  68 S18       29.91F WCI   2
ALBION         LGT SNOW  20  13  75 S13G18    29.89F WCI   8
BLAIR          LGT SNOW  19   9  64 SE17G26   29.99F WCI   4
COLUMBUS *     CLOUDY    19   3  49 S17G24    29.96F WCI   4
FREMONT        CLOUDY    19   6  59 SE15      30.00F WCI   4
TEKAMAH        CLOUDY    19   8  62 S25       30.02F WCI   1
WAYNE          CLOUDY    17   8  67 S18G24    29.95F WCI   1
$$

NEZ050>053-065>068-078-088>093-141000-
SOUTHEAST NEBRASKA

CITY           SKY/WX    TMP DP  RH WIND       PRES   REMARKS
LINCOLN        CLOUDY    20   8  60 S14       30.05F WCI   7
OMAHA EPPLEY   LGT SNOW  20   7  57 SE24      30.05F WCI   3
BEATRICE       CLOUDY    20   7  57 S8        30.05F WCI  10
FALLS CITY     CLOUDY    22   5  48 SE8       30.07F WCI  12
NEBRASKA CITY  CLOUDY    20   4  48 SE13G18   30.06F WCI   8
PLATTSMOUTH    CLOUDY    20   5  52 SE15G24   30.04F WCI   6
$$

NEZ044-045-051>053-067-141000-
OMAHA AREA

CITY           SKY/WX    TMP DP  RH WIND       PRES   REMARKS
OMAHA EPPLEY   LGT SNOW  20   7  57 SE24      30.05F WCI   3
BLAIR          LGT SNOW  19   9  64 SE17G26   29.99F WCI   4
FREMONT        CLOUDY    19   6  59 SE15      30.00F WCI   4
MILLARD        FLURRIES  21   7  55 SE16      30.03F WCI   7
OFFUTT AFB     CLOUDY    20   5  51 SE15      30.04F WCI   7
PLATTSMOUTH    CLOUDY    20   5  52 SE15G24   30.04F WCI   6
WAHOO          CLOUDY    19   9  64 S23       30.01F WCI   2
$$



USA.gov is the U.S. government's official web portal to all federal, state and local government web resources and services.